FW9395 Weather Reports


time (UTC)temp
C
wind
direction
speed
KPH
gust
KPH
rain 1hr
cm
rain 24hr
cm
rain mn
cm
humidity
%
barometer
mb
20260505012059 11 268 0.0 0.0 0.00 0.00 0.00 82 1012.4
20260505011554 11 261 0.0 0.0 0.00 0.00 0.00 82 1012.4
20260505011052 12 257 0.0 1.6 0.00 0.00 0.00 81 1012.4
20260505010547 11 263 3.2 4.8 0.00 0.00 0.00 81 1012.1
20260505010044 11 208 0.0 0.0 0.00 0.00 0.00 81 1012.1
20260505005540 11 268 0.0 1.6 0.00 0.00 0.00 82 1012.1
20260505005038 11 246 0.0 0.0 0.00 0.00 0.00 82 1012.4
20260505004535 11 248 4.8 6.4 0.00 0.00 0.00 83 1012.1
20260505004032 11 275 0.0 0.0 0.00 0.00 0.00 83 1011.7
20260505003529 11 281 0.0 0.0 0.00 0.00 0.00 83 1011.7
20260505003026 11 257 0.0 0.0 0.00 0.00 0.00 82 1011.7
20260505002526 11 277 0.0 0.0 0.00 0.00 0.00 82 1011.7
20260505002026 11 346 0.0 0.0 0.00 0.00 0.00 81 1011.7
20260505001523 12 262 0.0 0.0 0.00 0.00 0.00 81 1011.4
20260505001020 12 257 0.0 0.0 0.00 0.00 0.00 80 1011.4
20260505000517 12 279 0.0 0.0 0.00 0.00 0.00 80 1011.4
20260505000015 12 201 1.6 4.8 0.00 0.00 0.00 79 1011.4
20260504235511 12 267 3.2 11.3 0.00 0.00 0.00 78 1011.0
20260504235008 12 293 8.0 12.9 0.00 0.00 0.00 78 1011.4
20260504234505 12 267 4.8 6.4 0.00 0.00 0.00 77 1010.7
20260504234002 12 277 1.6 1.6 0.00 0.00 0.00 75 1011.0
20260504233457 13 282 3.2 4.8 0.00 0.00 0.00 74 1011.0
20260504232954 13 259 0.0 1.6 0.00 0.00 0.00 73 1010.7
20260504232451 13 326 4.8 6.4 0.00 0.00 0.00 73 1010.4
20260504231949 13 230 11.3 17.7 0.00 0.00 0.00 72 1010.4
20260504231445 13 253 4.8 6.4 0.00 0.00 0.00 71 1010.4
20260504230941 13 305 8.0 11.3 0.00 0.00 0.00 70 1010.4
20260504230438 13 314 6.4 8.0 0.00 0.00 0.00 69 1010.7
20260504225937 13 262 4.8 6.4 0.00 0.00 0.00 69 1010.7
20260504225433 13 265 0.0 1.6 0.00 0.00 0.00 69 1010.4
20260504224931 13 234 3.2 4.8 0.00 0.00 0.00 68 1010.4
20260504224427 14 325 1.6 4.8 0.00 0.00 0.00 67 1010.4
20260504223924 14 250 6.4 11.3 0.00 0.00 0.00 66 1010.4
20260504223420 14 225 4.8 6.4 0.00 0.00 0.00 65 1010.7
20260504222916 14 248 11.3 14.5 0.00 0.00 0.00 64 1010.4
20260504222414 15 184 8.0 11.3 0.00 0.00 0.00 63 1010.4
20260504221912 15 254 1.6 4.8 0.00 0.00 0.00 63 1010.4
20260504221408 15 267 3.2 4.8 0.00 0.00 0.00 63 1010.4
20260504220905 15 285 8.0 12.9 0.00 0.00 0.00 62 1010.4
20260504220402 15 335 6.4 8.0 0.00 0.00 0.00 61 1010.4
20260504215859 15 359 8.0 14.5 0.00 0.00 0.00 58 1010.4
20260504215355 16 267 9.7 14.5 0.00 0.00 0.00 58 1010.4
20260504214851 16 274 11.3 12.9 0.00 0.00 0.00 56 1010.7
20260504214348 16 280 12.9 17.7 0.00 0.00 0.00 56 1010.4
20260504213845 16 197 6.4 8.0 0.00 0.00 0.00 56 1010.4
20260504213341 16 223 3.2 6.4 0.00 0.00 0.00 57 1010.4
20260504212838 16 318 9.7 12.9 0.00 0.00 0.00 56 1010.7
20260504212334 16 217 4.8 6.4 0.00 0.00 0.00 56 1010.4
20260504211833 16 244 8.0 12.9 0.00 0.00 0.00 55 1010.4
20260504211328 16 240 6.4 8.0 0.00 0.00 0.00 56 1010.4
20260504210826 17 221 8.0 11.3 0.00 0.00 0.00 55 1010.4
20260504210322 16 273 6.4 8.0 0.00 0.00 0.00 55 1010.7
20260504205820 16 201 9.7 12.9 0.00 0.00 0.00 54 1010.4
20260504205317 17 215 8.0 11.3 0.00 0.00 0.00 53 1010.4
20260504204815 17 71 11.3 14.5 0.00 0.00 0.00 53 1010.7
20260504204314 17 240 12.9 17.7 0.00 0.00 0.00 51 1010.4
20260504203813 18 229 6.4 11.3 0.00 0.00 0.00 49 1010.4
20260504203309 17 240 9.7 12.9 0.00 0.00 0.00 50 1010.4
20260504202804 18 288 4.8 6.4 0.00 0.00 0.00 49 1010.4
20260504202304 18 279 14.5 19.3 0.00 0.00 0.00 48 1010.4
20260504201759 18 189 14.5 25.7 0.00 0.00 0.00 48 1010.4
20260504201256 18 241 20.9 24.1 0.00 0.00 0.00 48 1010.4
20260504200754 18 258 11.3 17.7 0.00 0.00 0.00 48 1010.4
20260504200249 18 154 6.4 11.3 0.00 0.00 0.00 47 1010.7
20260504195746 18 234 4.8 8.0 0.00 0.00 0.00 48 1010.4
20260504195242 18 276 9.7 14.5 0.00 0.00 0.00 48 1010.7
20260504194739 18 275 3.2 4.8 0.00 0.00 0.00 49 1010.4
20260504194235 17 298 8.0 14.5 0.00 0.00 0.00 50 1010.7
20260504193732 18 215 4.8 8.0 0.00 0.00 0.00 50 1010.4
20260504193229 18 269 6.4 11.3 0.00 0.00 0.00 49 1010.4
20260504192727 18 204 6.4 11.3 0.00 0.00 0.00 50 1010.4
20260504192225 18 217 12.9 17.7 0.00 0.00 0.00 49 1010.4
20260504191724 18 293 9.7 19.3 0.00 0.00 0.00 50 1010.7
20260504191220 18 197 9.7 17.7 0.00 0.00 0.00 50 1010.7
20260504190715 18 267 4.8 8.0 0.00 0.00 0.00 49 1010.4
20260504190212 19 240 4.8 6.4 0.00 0.00 0.00 47 1010.7
20260504185709 19 281 3.2 4.8 0.00 0.00 0.00 47 1010.7
20260504185206 18 178 8.0 11.3 0.00 0.00 0.00 47 1010.7
20260504184702 18 288 6.4 6.4 0.00 0.00 0.00 47 1011.0
20260504184157 18 293 8.0 14.5 0.00 0.00 0.00 47 1011.0
20260504183654 18 190 11.3 14.5 0.00 0.00 0.00 48 1010.7
20260504183151 18 277 9.7 12.9 0.00 0.00 0.00 48 1010.7
20260504182649 18 256 8.0 12.9 0.00 0.00 0.00 49 1011.0
20260504182146 17 337 4.8 6.4 0.00 0.00 0.00 48 1010.7
20260504181643 17 282 8.0 11.3 0.00 0.00 0.00 49 1011.4
20260504181141 18 338 11.3 14.5 0.00 0.00 0.00 45 1011.0
20260504180640 18 211 6.4 11.3 0.00 0.00 0.00 44 1011.4
20260504180138 18 226 6.4 11.3 0.00 0.00 0.00 42 1011.4
20260504175635 18 254 6.4 6.4 0.00 0.00 0.00 42 1011.4
20260504175131 17 281 3.2 6.4 0.00 0.00 0.00 42 1011.4
20260504174630 17 300 9.7 17.7 0.00 0.00 0.00 44 1011.7
20260504174126 17 294 8.0 8.0 0.00 0.00 0.00 45 1011.7
20260504173623 18 214 6.4 8.0 0.00 0.00 0.00 44 1011.7
20260504173121 17 254 6.4 8.0 0.00 0.00 0.00 42 1011.4
20260504172617 18 303 14.5 20.9 0.00 0.00 0.00 41 1011.7
20260504172114 17 271 8.0 8.0 0.00 0.00 0.00 40 1011.4
20260504171610 17 262 6.4 8.0 0.00 0.00 0.00 41 1011.4
20260504171108 17 275 8.0 11.3 0.00 0.00 0.00 41 1011.7
20260504170603 18 249 16.1 19.3 0.00 0.00 0.00 41 1011.7
20260504150947 17 282 8.0 11.3 0.00 0.00 0.00 41 1012.7
20260504150443 17 310 8.0 11.3 0.00 0.00 0.00 40 1012.7
20260504140910 16 313 8.0 12.9 0.00 0.00 0.00 42 1013.1
20260504140406 16 278 9.7 12.9 0.00 0.00 0.00 42 1013.4
20260504130331 14 276 9.7 19.3 0.00 0.00 0.00 52 1013.4
20260504120254 12 291 4.8 6.4 0.00 0.00 0.00 64 1013.7
20260504110218 11 251 1.6 1.6 0.00 0.00 0.00 69 1013.4
20260504100136 7 298 1.6 1.6 0.00 0.00 0.00 79 1013.4
20260504081529 6 273 0.0 0.0 0.00 0.00 0.00 83 1012.7
20260504081025 6 273 0.0 0.0 0.00 0.00 0.00 83 1012.7
20260504080522 6 273 0.0 0.0 0.00 0.00 0.00 83 1012.7
20260504050334 5 273 0.0 0.0 0.00 0.00 0.00 81 1012.1
20260504045832 5 273 0.0 0.0 0.00 0.00 0.00 80 1012.1
20260504045326 6 273 0.0 0.0 0.00 0.00 0.00 80 1012.4
20260504044823 6 273 0.0 0.0 0.00 0.00 0.00 80 1012.1
20260504044321 6 273 0.0 0.0 0.00 0.00 0.00 79 1012.1
20260504043818 6 273 0.0 0.0 0.00 0.00 0.00 79 1012.4
20260504043315 6 273 0.0 0.0 0.00 0.00 0.00 79 1012.4
20260504042812 6 273 0.0 0.0 0.00 0.00 0.00 78 1012.4
20260504042308 6 273 0.0 0.0 0.00 0.00 0.00 78 1012.1
20260504041805 6 273 0.0 0.0 0.00 0.00 0.00 78 1012.4
20260504041301 6 273 0.0 0.0 0.00 0.00 0.00 77 1012.1
20260504040757 6 273 0.0 0.0 0.00 0.00 0.00 77 1012.4
20260504040255 6 273 0.0 0.0 0.00 0.00 0.00 76 1012.1
20260504035750 7 273 0.0 0.0 0.00 0.00 0.00 76 1012.1
20260504035248 7 273 0.0 0.0 0.00 0.00 0.00 76 1012.1
20260504034745 7 273 0.0 0.0 0.00 0.00 0.00 75 1012.1
20260504034242 7 273 0.0 0.0 0.00 0.00 0.00 75 1012.1
20260504033740 7 273 0.0 0.0 0.00 0.00 0.00 75 1012.1
20260504033237 7 273 0.0 0.0 0.00 0.00 0.00 74 1012.1
20260504032734 7 273 0.0 0.0 0.00 0.00 0.00 73 1012.1
20260504032231 7 273 0.0 0.0 0.00 0.00 0.00 72 1012.1
20260504031728 7 273 0.0 0.0 0.00 0.00 0.00 72 1012.1
20260504031226 7 273 0.0 0.0 0.00 0.00 0.00 72 1012.1
20260504030721 7 273 0.0 0.0 0.00 0.00 0.00 71 1012.1
20260504030219 7 273 0.0 0.0 0.00 0.00 0.00 69 1012.1
20260504025715 8 273 0.0 0.0 0.00 0.00 0.00 68 1012.1
20260504025212 8 273 0.0 0.0 0.00 0.00 0.00 68 1012.1
20260504024709 8 273 0.0 0.0 0.00 0.00 0.00 67 1011.7
20260504024205 8 273 0.0 0.0 0.00 0.00 0.00 67 1011.4
20260504023702 8 273 0.0 0.0 0.00 0.00 0.00 66 1011.7
20260504023158 8 273 0.0 0.0 0.00 0.00 0.00 65 1012.1
20260504022654 8 273 0.0 0.0 0.00 0.00 0.00 63 1012.1
20260504022150 8 273 0.0 0.0 0.00 0.00 0.00 62 1012.1
20260504021648 8 273 0.0 0.0 0.00 0.00 0.00 59 1011.7
20260504021145 8 271 0.0 0.0 0.00 0.00 0.00 56 1011.7
20260504020642 9 269 0.0 0.0 0.00 0.00 0.00 53 1011.7
20260504020138 8 280 3.2 4.8 0.00 0.00 0.00 49 1011.7
20260504015635 8 274 0.0 0.0 0.00 0.00 0.00 49 1011.7
20260504015131 8 274 0.0 0.0 0.00 0.00 0.00 49 1011.7
20260504014627 8 274 0.0 0.0 0.00 0.00 0.00 49 1011.4
20260504014124 8 274 0.0 0.0 0.00 0.00 0.00 49 1011.7
20260504013621 8 274 0.0 0.0 0.00 0.00 0.00 48 1011.7
20260504013119 8 275 0.0 0.0 0.00 0.00 0.00 47 1011.4
20260504012616 8 274 0.0 0.0 0.00 0.00 0.00 50 1011.4